APSTAR 6D (45863 NORAD) Tracking and Keplerian Element Data

This shows tracking and keplerian element data for the satellite.

Feedback or suggestion? Click here.




ElementValue
Catalog45863
NameAPSTAR 6D
Epoch Orbit352
Epoch Day165.85849137
Epoch Year2021
RAAN100.6011
Inclination0.056
Eccentricity0.0003175
Argument of Perigee344.8055
Mean Anonmoly261.0264
Mean Motion1.00271913
Decay Rate-3.09E-06
L11 45863U 20045A 21165.85849137 -.00000309 00000-0 00000-0 0 9990
L22 45863 0.0560 100.6011 0003175 344.8055 261.0264 1.00271913 3528

Live tracking and technical data element details for APSTAR 6D (NORAD 45863). APSTAR 6D can be tracked NOW for your location showing map with azimuth and elevation plus other details from your city location.

Track the satellite on the map from your city or location and see movement details for azimuth, elevation, latitude, longitude, range, height, and movement on the map or in text.







IsCatalogInMostPopularTable: catalog: 45863, numindb: 131
Update: records affected: 1



GetName: 45863 APSTAR 6D

Hit Count: updated at: Tue, 15 Jun 2021 22:12:37 GMT